Weather History for KSUS - May, 2013

Change the Weather History Date:

Wednesday, May 22, 2013

  Actual Average (KSTL) Record (KSTL)
Temperature  
Mean Temperature 69 °F 68 °F  
Max Temperature 75 °F 78 °F 94 °F (1925)
Min Temperature 63 °F 59 °F 37 °F (1883)
Degree Days  
Heating Degree Days 0 2  
Month to date heating degree days 66  
Since 1 July heating degree days 4522  
Cooling Degree Days 4 5  
Month to date cooling degree days 74  
Year to date cooling degree days 120  
Growing Degree Days 19 (Base 50)    
Moisture  
Dew Point 57 °F    
Average Humidity 69    
Maximum Humidity 90    
Minimum Humidity 51    
Precipitation  
Precipitation 0.00 in 0.16 in 1.31 in (2000)
Month to date precipitation 3.27  
Year to date precipitation 14.92  
Snow  
Snow 0.00 in 0.00 in 0.00 in (2014)
Month to date snowfall 0.0  
Since 1 July snowfall 17.7  
Snow Depth -    
Sea Level Pressure  
Sea Level Pressure 29.75 in    
Wind  
Wind Speed 8 mph (WSW)    
Max Wind Speed 15 mph    
Max Gust Speed 25 mph    
Visibility 10 miles    
Events      
T = Trace of Precipitation, MM = Missing Value Source: NWS Daily Summary

Daily Weather History Graph

Daily Weather History Graph

Search for Another Location

Airport or City:

Trip Planner

Search our weather history database for the weather conditions in past years. The results will help you decide how hot, cold, wet, or windy it might be!

Date:

Astronomy

May. 22, 2013 Rise Set
Actual Time 5:45 AM CDT 8:14 PM CDT
Civil Twilight 5:14 AM CDT 8:44 PM CDT
Nautical Twilight 4:36 AM CDT 9:22 PM CDT
Astronomical Twilight 3:54 AM CDT 10:04 PM CDT
Moon 5:38 PM CDT (5/22) 3:47 AM CDT (5/22)
Length of Visible Light 15h 30m
Length of Day
14h 29m
Waxing Gibbous, 91% of the Moon is Illuminated
May 22
Waxing Gibbous
May 24
Full
May 31
Last Quarter
Jun 8
New
Jun 16
First Quarter

Hourly Weather History & Observations

Time (CDT) Temp. Dew Point Humidity Pressure Visibility Wind Dir Wind Speed Gust Speed Precip Events Conditions
12:54 AM 64.9 °F 62.1 °F 90% 29.71 in 10.0 mi Calm Calm - N/A   Mostly Cloudy
1:54 AM 64.9 °F 61.0 °F 87% 29.70 in 10.0 mi South 8.1 mph - N/A   Mostly Cloudy
2:54 AM 64.9 °F 61.0 °F 87% 29.68 in 10.0 mi SSW 6.9 mph - N/A   Overcast
3:54 AM 64.9 °F 60.1 °F 84% 29.68 in 10.0 mi SSW 8.1 mph - N/A   Scattered Clouds
4:54 AM 63.0 °F 60.1 °F 90% 29.68 in 10.0 mi SSW 8.1 mph - N/A   Partly Cloudy
5:54 AM 64.0 °F 60.1 °F 87% 29.69 in 10.0 mi SW 8.1 mph - N/A   Overcast
6:54 AM 64.0 °F 60.1 °F 87% 29.70 in 10.0 mi SW 9.2 mph - N/A   Mostly Cloudy
7:54 AM 66.0 °F 60.1 °F 81% 29.71 in 10.0 mi WSW 11.5 mph - N/A   Partly Cloudy
8:54 AM 69.1 °F 57.9 °F 68% 29.73 in 10.0 mi West 8.1 mph - N/A   Scattered Clouds
9:54 AM 71.1 °F 57.0 °F 61% 29.73 in 10.0 mi SW 8.1 mph - N/A   Partly Cloudy
10:54 AM 73.0 °F 54.0 °F 51% 29.74 in 10.0 mi WSW 12.7 mph - N/A   Scattered Clouds
11:54 AM 73.0 °F 55.0 °F 53% 29.74 in 10.0 mi SW 13.8 mph 25.3 mph N/A   Mostly Cloudy
12:54 PM 75.0 °F 57.9 °F 55% 29.74 in 10.0 mi WSW 13.8 mph 19.6 mph N/A   Mostly Cloudy
1:54 PM 75.0 °F 55.9 °F 51% 29.75 in 10.0 mi WSW 13.8 mph 20.7 mph N/A   Mostly Cloudy
2:54 PM 73.0 °F 55.9 °F 55% 29.76 in 10.0 mi West 12.7 mph - N/A   Mostly Cloudy
3:54 PM 73.0 °F 55.9 °F 55% 29.76 in 10.0 mi WSW 15.0 mph 20.7 mph N/A   Mostly Cloudy
4:54 PM 73.0 °F 55.9 °F 55% 29.76 in 10.0 mi West 12.7 mph - N/A   Mostly Cloudy
5:54 PM 71.1 °F 55.9 °F 59% 29.77 in 10.0 mi West 8.1 mph - N/A   Mostly Cloudy
6:54 PM 70.0 °F 55.0 °F 59% 29.78 in 10.0 mi West 9.2 mph - N/A   Overcast
7:54 PM 68.0 °F 54.0 °F 61% 29.80 in 10.0 mi West 8.1 mph - N/A   Mostly Cloudy
8:54 PM 64.9 °F 53.1 °F 65% 29.83 in 10.0 mi West 5.8 mph - N/A   Scattered Clouds
9:54 PM 63.0 °F 55.0 °F 75% 29.85 in 10.0 mi WSW 5.8 mph - N/A   Overcast
10:54 PM 64.0 °F 55.0 °F 73% 29.86 in 10.0 mi West 5.8 mph - N/A   Overcast
11:54 PM 63.0 °F 54.0 °F 72% 29.87 in 10.0 mi WSW 6.9 mph - N/A   Overcast